Location: Praha
(50.0830°N, 14.4670°E)
Time: 05:27:06
(UTC+02:00)

ISS - Pass Details

Date: 10 July 2024
Orbit: 409 x 423 km, 51.6° (Epoch: 24 July)

Event Time Altitude Azimuth Distance (km) Brightness Sun altitude
Rises 03:02:06 0° 287° (WNW) 2,345 -0.1 -13.4°
Reaches altitude 10° 03:04:12 10° 284° (WNW) 1,483 -1.1 -13.3°
Maximum altitude 03:07:30 66° 202° (SSW) 457 -3.9 -13.0°
Drops below altitude 10° 03:10:48 10° 120° (ESE) 1,486 -1.0 -12.7°
Sets 03:12:54 0° 118° (ESE) 2,350 0.1 -12.6°
